Time,TemperatureF,DewpointF,PressureIn,WindDirection,WindDirectionDegrees,WindSpeedMPH,WindSpeedGustMPH,Humidity,HourlyPrecipIn,Conditions,Clouds,dailyrainin,SoftwareType,DateUTC
2013-02-04 00:00:00,3.0,-99.9,-100.00,North,3,0.0,0.0,-999,-99.99,,,0.00,,2013-02-04 07:00:00,
2013-02-04 00:52:00,3.0,-99.9,-100.00,North,3,0.0,0.0,-999,-99.99,,,0.00,,2013-02-04 07:52:00,
2013-02-04 01:00:00,1.0,-99.9,-100.00,North,-999,-999.0,-999.0,-999,-99.99,,,-99.99,,2013-02-04 08:00:00,
2013-02-04 01:52:00,1.0,-99.9,-100.00,North,-999,-999.0,-999.0,-999,-99.99,,,-99.99,,2013-02-04 08:52:00,
2013-02-04 03:00:00,-1.0,-99.9,-100.00,North,3,0.0,0.0,-999,-99.99,,,-99.99,,2013-02-04 10:00:00,
2013-02-04 03:52:00,-1.0,-99.9,-100.00,North,3,0.0,0.0,-999,-99.99,,,-99.99,,2013-02-04 10:52:00,
2013-02-04 05:00:00,2.0,-99.9,-100.00,North,-999,-999.0,-999.0,-999,-99.99,,,-99.99,,2013-02-04 12:00:00,
2013-02-04 05:53:00,2.0,-99.9,-100.00,North,-999,-999.0,-999.0,-999,-99.99,,,-99.99,,2013-02-04 12:53:00,
2013-02-04 07:00:00,-2.0,-99.9,-100.00,North,3,0.0,0.0,-999,-99.99,,,-99.99,,2013-02-04 14:00:00,
2013-02-04 07:53:00,-2.0,-99.9,-100.00,North,3,0.0,0.0,-999,-99.99,,,-99.99,,2013-02-04 14:53:00,
2013-02-04 08:00:00,-1.0,-99.9,-100.00,North,3,0.0,0.0,-999,-99.99,,,-99.99,,2013-02-04 15:00:00,
2013-02-04 08:53:00,-1.0,-99.9,-100.00,North,3,0.0,0.0,-999,-99.99,,,-99.99,,2013-02-04 15:53:00,
2013-02-04 10:00:00,26.0,-99.9,-100.00,North,-999,-999.0,-999.0,-999,-99.99,,,-99.99,,2013-02-04 17:00:00,
2013-02-04 11:00:00,34.0,-99.9,-100.00,North,0,1.0,8.0,-999,-99.99,,,0.00,,2013-02-04 18:00:00,
2013-02-04 11:52:00,34.0,-99.9,-100.00,North,0,1.0,8.0,-999,-99.99,,,0.00,,2013-02-04 18:52:00,
2013-02-04 12:00:00,36.0,-99.9,-100.00,North,0,5.0,13.0,-999,-99.99,,,-99.99,,2013-02-04 19:00:00,
2013-02-04 12:52:00,36.0,-99.9,-100.00,North,0,5.0,13.0,-999,-99.99,,,-99.99,,2013-02-04 19:52:00,
2013-02-04 13:00:00,35.0,-99.9,-100.00,North,-999,-999.0,-999.0,-999,-99.99,,,0.00,,2013-02-04 20:00:00,
2013-02-04 13:53:00,35.0,-99.9,-100.00,North,-999,-999.0,-999.0,-999,-99.99,,,0.00,,2013-02-04 20:53:00,
2013-02-04 14:00:00,35.0,-99.9,-100.00,North,0,5.0,10.0,-999,-99.99,,,0.00,,2013-02-04 21:00:00,
2013-02-04 14:52:00,35.0,-99.9,-100.00,North,0,5.0,10.0,-999,-99.99,,,0.00,,2013-02-04 21:52:00,
2013-02-04 15:00:00,36.0,-99.9,-100.00,North,0,3.0,9.0,-999,-99.99,,,0.00,,2013-02-04 22:00:00,
2013-02-04 15:52:00,36.0,-99.9,-100.00,North,0,3.0,9.0,-999,-99.99,,,0.00,,2013-02-04 22:52:00,
2013-02-04 16:00:00,33.0,-99.9,-100.00,North,0,2.0,10.0,-999,-99.99,,,0.00,,2013-02-04 23:00:00,
2013-02-04 16:53:00,33.0,-99.9,-100.00,North,0,2.0,10.0,-999,-99.99,,,0.00,,2013-02-04 23:53:00,
2013-02-04 17:00:00,31.0,-99.9,-100.00,North,-999,-999.0,-999.0,-999,-99.99,,,0.00,,2013-02-05 00:00:00,
2013-02-04 17:52:00,31.0,-99.9,-100.00,North,-999,-999.0,-999.0,-999,-99.99,,,0.00,,2013-02-05 00:52:00,
2013-02-04 21:00:00,22.0,-99.9,-100.00,North,0,0.0,0.0,-999,-99.99,,,0.00,,2013-02-05 04:00:00,
2013-02-04 21:52:00,22.0,-99.9,-100.00,North,0,0.0,0.0,-999,-99.99,,,0.00,,2013-02-05 04:52:00,
2013-02-04 22:00:00,16.0,-99.9,-100.00,North,-999,-999.0,-999.0,-999,-99.99,,,0.00,,2013-02-05 05:00:00,
2013-02-04 22:52:00,16.0,-99.9,-100.00,North,-999,-999.0,-999.0,-999,-99.99,,,0.00,,2013-02-05 05:52:00,
2013-02-04 23:00:00,12.0,-99.9,-100.00,North,0,0.0,0.0,-999,-99.99,,,-99.99,,2013-02-05 06:00:00,
2013-02-04 23:52:00,12.0,-99.9,-100.00,North,0,0.0,0.0,-999,-99.99,,,-99.99,,2013-02-05 06:52:00,